Regional Weather Roundup
Issued by NWS Midland/Odessa, TX

Skip options and go directly to product.
Home | Oldest Version | Previous Version | Current Version | All | Text Only | Save Text | Print | Product List | Glossary On

Skip product version selection by date and time.   
733
ASUS44 KMAF 300510
RWRMAF
MIDLAND AREA WEATHER ROUNDUP
NATIONAL WEATHER SERVICE MIDLAND TX
1200 AM CDT MON MAR 30 2015

...IN SOUTHWEST TEXAS AND SOUTHEAST NEW MEXICO...

CITY           SKY/WX    TMP DP  RH WIND       PRES   REMARKS
ALPINE         PTCLDY    58  33  37 N5        30.27R
ANDREWS        FAIR      58  37  44 E8        30.18S
ARTESIA        PTCLDY    64  30  27 SW10      30.20R
BIG SPRING     MOCLDY    65  35  32 NE20      30.17S
CARLSBAD       PTCLDY    68  32  26 S8        30.16R
DRYDEN           N/A     69  54  58 N14       30.07R
FORT STOCKTON  CLEAR     68  42  38 E17G26    30.15R
GUAD PASS      CLOUDY    61  31  32 NE31      30.27R
HOBBS          PTCLDY    63  28  27 E13       30.20R
MARFA          PTCLDY    52  30  43 N8        30.22S
MIDLAND AIRPK  PTCLDY    64  38  38 E9        30.18S
MIDLAND INTL   PTCLDY    65  39  38 E14       30.16R
ODESSA         MOCLDY    65  37  35 E14       30.17R
PECOS          CLEAR     66  39  36 E9        30.15R
PRESIDIO       FAIR      69  25  18 N9        30.06S
SEMINOLE       MOCLDY    56  32  40 CALM      30.20S
SNYDER         PTCLDY    65  38  36 NE14      30.17R
WINK           CLEAR     68  36  30 E14       30.14R
$$
...OTHER STATIONS IN TEXAS...

CITY           SKY/WX    TMP DP  RH WIND       PRES   REMARKS
ABILENE        PTCLDY    63  46  54 N7        30.14S
AMARILLO       PTCLDY    54  25  32 E7        30.26R
AUSTIN         CLEAR     64  60  87 S10       30.12R
BROWNSVILLE    CLEAR     69  66  90 S12       30.13S
CORPUS CHRISTI CLEAR     67  65  93 S15       30.11S
DALLAS FTW     PTCLDY    67  56  67 E6        30.07R
DEL RIO        MOCLDY    73  55  53 E9        30.04R
EL PASO        CLOUDY    73  20  13 S7        30.13R
HOUSTON INT    PTCLDY    68  63  84 S7        30.15R
LUBBOCK        MOCLDY    52  25  35 NE14      30.20F
SAN ANGELO     CLEAR     61  47  59 CALM      30.13S
SAN ANTONIO    CLEAR     67  62  84 SE12      30.12R
WACO           CLEAR     66  55  67 S10       30.10R
WICHITA FALLS  NOT AVBL
$$
...OTHER LOCATIONS IN NEW MEXICO...

CITY           SKY/WX    TMP DP  RH WIND       PRES   REMARKS
ALAMAGORDO     MOCLDY    66  27  22 E6        30.16S
ALBUQUERQUE    CLOUDY    64  29  26 E25G37    30.19S
CANNON AFB     PTCLDY    51  27  39 E9        30.24S
CLOVIS         PTCLDY    48  27  43 NE10      30.25S
HOLLOMAN AFB   MOCLDY    68  16  13 CALM      30.14R
ROSWELL        PTCLDY    62  31  31 W7        30.20R
RUIDOSO        CLOUDY    54  27  35 SE14      30.38R
SANTA FE       MOCLDY    56  23  27 E6        30.29S
TRUTH OR CONSE CLOUDY    63  17  17 W6        30.17R
TUCUMCARI      PTCLDY    50  26  39 NE7       30.23F
$$

USA.gov is the U.S. government's official web portal to all federal, state and local government web resources and services.